,,PressureMeas_1m,,PRMeasQMR101_1,,RHStat155_1m_1,,SRMeasQMS101R_1m,,TAStat155_1m_1,,GenWind_1,,GenWind_1,
2019-10-28, 07:00:06,VALID,917.533,VALID,0.0,VALID,99.915,VALID,21.724,VALID,19.881,INVALID,360.0,VALID,0.0,
2019-10-28, 07:01:06,VALID,917.549,VALID,0.0,VALID,99.918,VALID,23.07,VALID,19.828,INVALID,360.0,VALID,0.0,
2019-10-28, 07:02:06,VALID,917.547,VALID,0.0,VALID,99.917,VALID,24.345,VALID,19.836,INVALID,360.0,VALID,0.0,
2019-10-28, 07:03:06,VALID,917.553,VALID,0.0,VALID,99.915,VALID,25.123,VALID,19.836,INVALID,360.0,VALID,0.0,
2019-10-28, 07:04:06,VALID,917.563,VALID,0.0,VALID,99.916,VALID,25.087,VALID,19.834,INVALID,360.0,VALID,0.0,
2019-10-28, 07:05:06,VALID,917.56,VALID,0.0,VALID,99.916,VALID,24.244,VALID,19.884,INVALID,360.0,VALID,0.0,
2019-10-28, 07:06:06,VALID,917.58,VALID,0.0,VALID,99.918,VALID,22.925,VALID,19.913,INVALID,360.0,VALID,0.0,
2019-10-28, 07:07:06,VALID,917.595,VALID,0.0,VALID,99.915,VALID,21.57,VALID,19.894,INVALID,360.0,VALID,0.0,
2019-10-28, 07:08:06,VALID,917.621,VALID,0.0,VALID,99.916,VALID,20.757,VALID,19.878,INVALID,360.0,VALID,0.0,
2019-10-28, 07:09:06,VALID,917.627,VALID,0.0,VALID,99.915,VALID,20.403,VALID,19.881,INVALID,360.0,VALID,0.0,
2019-10-28, 07:10:06,VALID,917.643,VALID,0.0,VALID,99.915,VALID,20.389,VALID,19.909,INVALID,360.0,VALID,0.0,
2019-10-28, 07:11:06,VALID,917.649,VALID,0.0,VALID,99.916,VALID,20.398,VALID,19.912,INVALID,360.0,VALID,0.0,
2019-10-28, 07:12:07,VALID,917.647,VALID,0.0,VALID,99.914,VALID,20.352,VALID,19.908,INVALID,360.0,VALID,0.0,
2019-10-28, 07:13:07,VALID,917.665,VALID,0.0,VALID,99.914,VALID,20.149,VALID,19.936,INVALID,360.0,VALID,0.0,
2019-10-28, 07:14:07,VALID,917.678,VALID,0.0,VALID,99.915,VALID,19.866,VALID,19.897,INVALID,360.0,VALID,0.0,
2019-10-28, 07:15:07,VALID,917.684,VALID,0.0,VALID,99.914,VALID,19.529,VALID,19.918,INVALID,360.0,VALID,0.0,
2019-10-28, 07:16:07,VALID,917.708,VALID,0.0,VALID,99.915,VALID,19.089,VALID,19.906,INVALID,360.0,VALID,0.0,
2019-10-28, 07:17:07,VALID,917.744,VALID,0.0,VALID,99.913,VALID,18.601,VALID,19.891,INVALID,360.0,VALID,0.0,
2019-10-28, 07:18:07,VALID,917.753,VALID,0.0,VALID,99.915,VALID,17.985,VALID,19.909,INVALID,360.0,VALID,0.0,
2019-10-28, 07:19:07,VALID,917.787,VALID,0.0,VALID,99.917,VALID,17.225,VALID,19.93,INVALID,360.0,VALID,0.0,
2019-10-28, 07:20:07,VALID,917.804,VALID,0.0,VALID,99.914,VALID,16.28,VALID,19.911,INVALID,360.0,VALID,0.0,
2019-10-28, 07:21:07,VALID,917.849,VALID,0.0,VALID,99.918,VALID,15.278,VALID,19.925,INVALID,360.0,VALID,0.0,
2019-10-28, 07:22:07,VALID,917.885,VALID,0.0,VALID,99.916,VALID,14.354,VALID,19.939,INVALID,360.0,VALID,0.0,
2019-10-28, 07:23:07,VALID,917.905,VALID,0.0,VALID,99.915,VALID,13.468,VALID,19.966,INVALID,360.0,VALID,0.0,
2019-10-28, 07:24:07,VALID,917.917,VALID,0.0,VALID,99.917,VALID,12.771,VALID,19.972,INVALID,360.0,VALID,0.0,
2019-10-28, 07:25:07,VALID,917.927,VALID,0.0,VALID,99.918,VALID,12.203,VALID,19.98,INVALID,360.0,VALID,0.0,
2019-10-28, 07:26:07,VALID,917.93,VALID,0.0,VALID,99.916,VALID,11.84,VALID,19.965,INVALID,360.0,VALID,0.0,
2019-10-28, 07:27:07,VALID,917.937,VALID,0.0,VALID,99.914,VALID,11.621,VALID,19.931,VALID,303.0,VALID,0.0,
2019-10-28, 07:28:07,VALID,917.958,VALID,0.0,VALID,99.915,VALID,11.439,VALID,19.914,VALID,303.0,VALID,0.0,
2019-10-28, 07:29:07,VALID,917.977,VALID,0.0,VALID,99.916,VALID,11.171,VALID,19.926,VALID,303.0,VALID,0.0,
2019-10-28, 07:30:07,VALID,918.006,VALID,0.0,VALID,99.916,VALID,10.812,VALID,19.922,VALID,303.0,VALID,0.0,
2019-10-28, 07:31:07,VALID,918.036,VALID,0.0,VALID,99.915,VALID,10.465,VALID,19.93,VALID,303.0,VALID,0.0,
2019-10-28, 07:32:07,VALID,918.035,VALID,0.0,VALID,99.916,VALID,10.647,VALID,19.923,VALID,305.0,VALID,0.0,
2019-10-28, 07:33:07,VALID,918.061,VALID,0.0,VALID,99.919,VALID,11.235,VALID,19.945,VALID,317.0,VALID,0.0,
2019-10-28, 07:34:07,VALID,918.092,VALID,0.0,VALID,99.914,VALID,11.768,VALID,19.968,VALID,317.0,VALID,0.0,
2019-10-28, 07:35:07,VALID,918.118,VALID,0.0,VALID,99.915,VALID,12.86,VALID,19.979,VALID,317.0,VALID,0.0,
2019-10-28, 07:36:07,VALID,918.123,VALID,0.0,VALID,99.913,VALID,14.081,VALID,19.999,VALID,317.0,VALID,0.0,
2019-10-28, 07:37:07,VALID,918.147,VALID,0.0,VALID,99.913,VALID,15.286,VALID,20.023,VALID,317.0,VALID,0.0,
2019-10-28, 07:38:07,VALID,918.151,VALID,0.0,VALID,99.915,VALID,16.695,VALID,19.99,VALID,317.0,VALID,0.0,
2019-10-28, 07:39:07,VALID,918.167,VALID,0.0,VALID,99.919,VALID,17.946,VALID,19.971,INVALID,360.0,VALID,0.0,
2019-10-28, 07:40:07,VALID,918.199,VALID,0.0,VALID,99.915,VALID,19.505,VALID,19.958,INVALID,360.0,VALID,0.0,
2019-10-28, 07:41:07,VALID,918.214,VALID,0.0,VALID,99.919,VALID,20.709,VALID,19.981,INVALID,360.0,VALID,0.0,
2019-10-28, 07:42:07,VALID,918.227,VALID,0.0,VALID,99.918,VALID,21.501,VALID,19.974,INVALID,360.0,VALID,0.0,
2019-10-28, 07:43:07,VALID,918.219,VALID,0.0,VALID,99.916,VALID,21.776,VALID,19.918,INVALID,360.0,VALID,0.0,
2019-10-28, 07:44:07,VALID,918.244,VALID,0.0,VALID,99.916,VALID,21.72,VALID,19.929,INVALID,360.0,VALID,0.0,
2019-10-28, 07:45:07,VALID,918.276,VALID,0.0,VALID,99.915,VALID,21.756,VALID,19.93,INVALID,360.0,VALID,0.0,
2019-10-28, 07:46:07,VALID,918.293,VALID,0.0,VALID,99.915,VALID,21.742,VALID,19.97,INVALID,360.0,VALID,0.0,
2019-10-28, 07:47:07,VALID,918.326,VALID,0.0,VALID,99.914,VALID,21.749,VALID,20.005,INVALID,360.0,VALID,0.0,
2019-10-28, 07:48:07,VALID,918.351,VALID,0.0,VALID,99.914,VALID,21.953,VALID,20.03,INVALID,360.0,VALID,0.0,
2019-10-28, 07:49:07,VALID,918.358,VALID,0.0,VALID,99.914,VALID,22.475,VALID,20.005,INVALID,360.0,VALID,0.0,
2019-10-28, 07:50:07,VALID,918.371,VALID,0.0,VALID,99.916,VALID,24.083,VALID,19.975,INVALID,360.0,VALID,0.0,
2019-10-28, 07:51:07,VALID,918.389,VALID,0.0,VALID,99.916,VALID,26.061,VALID,19.953,INVALID,360.0,VALID,0.0,
2019-10-28, 07:52:07,VALID,918.389,VALID,0.0,VALID,99.92,VALID,28.356,VALID,19.962,INVALID,360.0,VALID,0.0,
2019-10-28, 07:53:07,VALID,918.406,VALID,0.0,VALID,99.913,VALID,30.739,VALID,19.978,INVALID,360.0,VALID,0.0,
2019-10-28, 07:54:07,VALID,918.413,VALID,0.0,VALID,99.916,VALID,32.728,VALID,19.964,INVALID,360.0,VALID,0.0,
2019-10-28, 07:55:07,VALID,918.405,VALID,0.0,VALID,99.916,VALID,34.701,VALID,19.917,INVALID,360.0,VALID,0.0,
2019-10-28, 07:56:07,VALID,918.434,VALID,0.0,VALID,99.916,VALID,36.807,VALID,19.918,INVALID,360.0,VALID,0.0,
2019-10-28, 07:57:07,VALID,918.436,VALID,0.0,VALID,99.913,VALID,38.09,VALID,19.949,INVALID,360.0,VALID,0.0,
2019-10-28, 07:58:07,VALID,918.449,VALID,0.0,VALID,99.916,VALID,37.207,VALID,19.98,INVALID,360.0,VALID,0.0,
2019-10-28, 07:59:07,VALID,918.463,VALID,0.0,VALID,99.915,VALID,39.643,VALID,19.994,INVALID,360.0,VALID,0.0,
2019-10-28, 08:00:07,VALID,918.498,VALID,0.0,VALID,99.914,VALID,41.641,VALID,20.03,INVALID,360.0,VALID,0.0,
2019-10-28, 08:01:07,VALID,918.521,VALID,0.0,VALID,99.916,VALID,43.633,VALID,19.986,INVALID,360.0,VALID,0.0,
2019-10-28, 08:02:07,VALID,918.523,VALID,0.2,VALID,99.918,VALID,47.026,VALID,20.016,INVALID,360.0,VALID,0.0,
2019-10-28, 08:03:07,VALID,918.555,VALID,0.0,VALID,99.916,VALID,51.257,VALID,20.048,INVALID,360.0,VALID,0.0,
2019-10-28, 08:04:07,VALID,918.568,VALID,0.0,VALID,99.917,VALID,55.652,VALID,20.085,INVALID,360.0,VALID,0.0,
2019-10-28, 08:05:07,VALID,918.574,VALID,0.0,VALID,99.916,VALID,59.47,VALID,20.092,INVALID,360.0,VALID,0.0,
2019-10-28, 08:06:07,VALID,918.594,VALID,0.0,VALID,99.917,VALID,64.01,VALID,20.106,INVALID,360.0,VALID,0.0,
2019-10-28, 08:07:07,VALID,918.595,VALID,0.0,VALID,99.917,VALID,70.345,VALID,20.115,INVALID,360.0,VALID,0.0,
2019-10-28, 08:08:07,VALID,918.611,VALID,0.0,VALID,99.915,VALID,73.949,VALID,20.111,INVALID,360.0,VALID,0.0,
2019-10-28, 08:09:07,VALID,918.605,VALID,0.0,VALID,99.917,VALID,79.141,VALID,20.146,INVALID,360.0,VALID,0.0,
2019-10-28, 08:10:07,VALID,918.601,VALID,0.0,VALID,99.916,VALID,84.688,VALID,20.146,INVALID,360.0,VALID,0.0,
2019-10-28, 08:11:07,VALID,918.608,VALID,0.0,VALID,99.92,VALID,85.314,VALID,20.144,INVALID,360.0,VALID,0.0,
2019-10-28, 08:12:07,VALID,918.633,VALID,0.2,VALID,99.919,VALID,86.178,VALID,20.178,INVALID,360.0,VALID,0.0,
2019-10-28, 08:13:07,VALID,918.632,VALID,0.0,VALID,99.918,VALID,92.417,VALID,20.246,INVALID,360.0,VALID,0.0,
2019-10-28, 08:14:07,VALID,918.654,VALID,0.0,VALID,99.916,VALID,94.217,VALID,20.292,INVALID,360.0,VALID,0.0,
2019-10-28, 08:15:07,VALID,918.69,VALID,0.0,VALID,99.915,VALID,93.047,VALID,20.274,INVALID,360.0,VALID,0.0,
2019-10-28, 08:16:07,VALID,918.68,VALID,0.0,VALID,99.918,VALID,89.26,VALID,20.293,INVALID,360.0,VALID,0.0,
2019-10-28, 08:17:07,VALID,918.709,VALID,0.0,VALID,99.918,VALID,83.993,VALID,20.245,INVALID,360.0,VALID,0.0,
2019-10-28, 08:18:07,VALID,918.722,VALID,0.2,VALID,99.918,VALID,79.595,VALID,20.199,INVALID,360.0,VALID,0.0,
2019-10-28, 08:19:07,VALID,918.741,VALID,0.0,VALID,99.915,VALID,81.668,VALID,20.128,INVALID,360.0,VALID,0.0,
2019-10-28, 08:20:07,VALID,918.736,VALID,0.0,VALID,99.917,VALID,91.521,VALID,20.131,INVALID,360.0,VALID,0.0,
2019-10-28, 08:21:07,VALID,918.734,VALID,0.0,VALID,99.918,VALID,98.616,VALID,20.186,INVALID,360.0,VALID,0.0,
2019-10-28, 08:22:07,VALID,918.738,VALID,0.0,VALID,99.916,VALID,103.154,VALID,20.277,INVALID,360.0,VALID,0.0,
2019-10-28, 08:23:07,VALID,918.75,VALID,0.0,VALID,99.919,VALID,122.219,VALID,20.247,INVALID,360.0,VALID,0.0,
2019-10-28, 08:24:07,VALID,918.742,VALID,0.0,VALID,99.917,VALID,132.106,VALID,20.171,INVALID,360.0,VALID,0.0,
2019-10-28, 08:25:07,VALID,918.756,VALID,0.0,VALID,99.918,VALID,134.3,VALID,20.217,INVALID,360.0,VALID,0.0,
2019-10-28, 08:26:07,VALID,918.778,VALID,0.0,VALID,99.916,VALID,138.271,VALID,20.214,INVALID,360.0,VALID,0.0,
2019-10-28, 08:27:07,VALID,918.794,VALID,0.0,VALID,99.918,VALID,129.212,VALID,20.17,INVALID,360.0,VALID,0.0,
2019-10-28, 08:28:07,VALID,918.796,VALID,0.0,VALID,99.919,VALID,113.873,VALID,20.148,INVALID,360.0,VALID,0.0,
2019-10-28, 08:29:07,VALID,918.804,VALID,0.0,VALID,99.918,VALID,102.237,VALID,20.27,INVALID,360.0,VALID,0.0,
2019-10-28, 08:30:07,VALID,918.812,VALID,0.0,VALID,99.918,VALID,93.029,VALID,20.383,INVALID,360.0,VALID,0.0,
2019-10-28, 08:31:07,VALID,918.814,VALID,0.0,VALID,99.916,VALID,85.169,VALID,20.376,INVALID,360.0,VALID,0.0,
2019-10-28, 08:32:07,VALID,918.816,VALID,0.0,VALID,99.92,VALID,80.854,VALID,20.306,INVALID,360.0,VALID,0.0,
2019-10-28, 08:33:07,VALID,918.822,VALID,0.0,VALID,99.919,VALID,82.765,VALID,20.333,INVALID,360.0,VALID,0.0,
2019-10-28, 08:34:07,VALID,918.869,VALID,0.0,VALID,99.917,VALID,81.563,VALID,20.304,INVALID,360.0,VALID,0.0,
2019-10-28, 08:35:07,VALID,918.868,VALID,0.0,VALID,99.923,VALID,75.15,VALID,20.239,VALID,315.0,VALID,0.0,
2019-10-28, 08:36:07,VALID,918.872,VALID,0.0,VALID,99.919,VALID,75.287,VALID,20.182,VALID,304.0,VALID,0.0,
2019-10-28, 08:37:07,VALID,918.891,VALID,0.0,VALID,99.919,VALID,80.192,VALID,20.243,VALID,305.0,VALID,0.0,
2019-10-28, 08:38:07,VALID,918.913,VALID,0.0,VALID,99.921,VALID,80.18,VALID,20.349,VALID,32.0,VALID,0.0,
2019-10-28, 08:39:07,VALID,918.933,VALID,0.0,VALID,99.916,VALID,76.344,VALID,20.447,INVALID,360.0,VALID,0.0,
2019-10-28, 08:40:07,VALID,918.963,VALID,0.0,VALID,99.919,VALID,74.609,VALID,20.449,INVALID,360.0,VALID,0.0,
2019-10-28, 08:41:07,VALID,918.975,VALID,0.0,VALID,99.916,VALID,74.387,VALID,20.427,INVALID,360.0,VALID,0.0,
2019-10-28, 08:42:07,VALID,919.007,VALID,0.0,VALID,99.919,VALID,70.274,VALID,20.366,INVALID,360.0,VALID,0.0,
2019-10-28, 08:43:07,VALID,919.032,VALID,0.0,VALID,99.92,VALID,66.318,VALID,20.235,INVALID,360.0,VALID,0.0,
2019-10-28, 08:44:07,VALID,919.051,VALID,0.0,VALID,99.918,VALID,67.507,VALID,20.04,INVALID,360.0,VALID,0.0,
2019-10-28, 08:45:07,VALID,919.063,VALID,0.0,VALID,99.917,VALID,71.317,VALID,20.032,INVALID,360.0,VALID,0.0,
2019-10-28, 08:46:07,VALID,919.071,VALID,0.0,VALID,99.916,VALID,78.877,VALID,20.087,INVALID,360.0,VALID,0.0,
2019-10-28, 08:47:07,VALID,919.068,VALID,0.0,VALID,99.92,VALID,90.096,VALID,20.082,INVALID,360.0,VALID,0.0,
2019-10-28, 08:48:07,VALID,919.073,VALID,0.0,VALID,99.917,VALID,100.714,VALID,20.171,INVALID,360.0,VALID,0.0,
2019-10-28, 08:49:07,VALID,919.07,VALID,0.0,VALID,99.917,VALID,111.835,VALID,20.236,INVALID,360.0,VALID,0.0,
2019-10-28, 08:50:07,VALID,919.052,VALID,0.0,VALID,99.919,VALID,123.355,VALID,20.215,INVALID,360.0,VALID,0.0,
2019-10-28, 08:51:07,VALID,919.04,VALID,0.0,VALID,99.919,VALID,133.446,VALID,20.258,INVALID,360.0,VALID,0.0,
2019-10-28, 08:52:07,VALID,919.054,VALID,0.0,VALID,99.918,VALID,143.588,VALID,20.311,INVALID,360.0,VALID,0.0,
2019-10-28, 08:53:07,VALID,919.034,VALID,0.0,VALID,99.917,VALID,155.108,VALID,20.388,INVALID,360.0,VALID,0.0,
2019-10-28, 08:54:07,VALID,919.053,VALID,0.0,VALID,99.919,VALID,167.637,VALID,20.484,INVALID,360.0,VALID,0.0,
2019-10-28, 08:55:07,VALID,919.055,VALID,0.0,VALID,99.92,VALID,182.646,VALID,20.492,VALID,309.0,VALID,0.0,
2019-10-28, 08:56:07,VALID,919.068,VALID,0.0,VALID,99.919,VALID,200.265,VALID,20.417,INVALID,360.0,VALID,0.0,
2019-10-28, 08:57:07,VALID,919.064,VALID,0.0,VALID,99.921,VALID,224.573,VALID,20.584,INVALID,360.0,VALID,0.0,
2019-10-28, 08:58:07,VALID,919.087,VALID,0.0,VALID,99.922,VALID,257.745,VALID,20.788,INVALID,360.0,VALID,0.0,
2019-10-28, 08:59:07,VALID,919.075,VALID,0.0,VALID,99.922,VALID,282.083,VALID,20.714,INVALID,360.0,VALID,0.0,
2019-10-28, 09:00:07,VALID,919.064,VALID,0.0,VALID,99.796,VALID,292.005,VALID,20.506,INVALID,360.0,VALID,0.0,
2019-10-28, 09:01:07,VALID,919.05,VALID,0.0,VALID,99.796,VALID,296.098,VALID,20.495,INVALID,360.0,VALID,0.0,
2019-10-28, 09:02:07,VALID,919.046,VALID,0.0,VALID,99.882,VALID,302.844,VALID,20.63,INVALID,360.0,VALID,0.0,
2019-10-28, 09:03:07,VALID,919.038,VALID,0.0,VALID,99.877,VALID,313.772,VALID,20.639,INVALID,360.0,VALID,0.0,
2019-10-28, 09:04:07,VALID,919.029,VALID,0.0,VALID,99.691,VALID,324.015,VALID,20.558,INVALID,360.0,VALID,0.0,
2019-10-28, 09:05:07,VALID,919.045,VALID,0.0,VALID,99.689,VALID,324.656,VALID,20.58,INVALID,360.0,VALID,0.0,
2019-10-28, 09:06:07,VALID,919.03,VALID,0.0,VALID,99.697,VALID,317.282,VALID,20.583,INVALID,360.0,VALID,0.0,
2019-10-28, 09:07:07,VALID,919.051,VALID,0.0,VALID,99.543,VALID,314.196,VALID,20.544,INVALID,360.0,VALID,0.0,
2019-10-28, 09:08:07,VALID,919.047,VALID,0.0,VALID,99.47,VALID,322.332,VALID,20.543,INVALID,360.0,VALID,0.0,
2019-10-28, 09:09:07,VALID,919.036,VALID,0.0,VALID,99.489,VALID,346.959,VALID,20.638,INVALID,360.0,VALID,0.0,
2019-10-28, 09:10:07,VALID,919.057,VALID,0.0,VALID,99.672,VALID,357.775,VALID,20.788,INVALID,360.0,VALID,0.0,
2019-10-28, 09:11:07,VALID,919.042,VALID,0.0,VALID,99.755,VALID,356.105,VALID,20.946,INVALID,360.0,VALID,0.0,
2019-10-28, 09:12:07,VALID,919.034,VALID,0.0,VALID,99.832,VALID,365.155,VALID,21.03,INVALID,360.0,VALID,0.0,
2019-10-28, 09:13:07,VALID,919.032,VALID,0.0,VALID,99.415,VALID,382.925,VALID,20.897,INVALID,360.0,VALID,0.0,
2019-10-28, 09:14:07,VALID,919.029,VALID,0.0,VALID,99.543,VALID,366.15,VALID,21.032,INVALID,360.0,VALID,0.0,
2019-10-28, 09:15:07,VALID,919.022,VALID,0.0,VALID,99.504,VALID,346.84,VALID,21.066,INVALID,360.0,VALID,0.0,
2019-10-28, 09:16:07,VALID,919.01,VALID,0.0,VALID,99.461,VALID,393.789,VALID,21.229,VALID,337.0,VALID,0.0,
2019-10-28, 09:17:06,VALID,919.01,VALID,0.0,VALID,99.286,VALID,414.142,VALID,21.309,VALID,321.0,VALID,0.0,
2019-10-28, 09:18:06,VALID,919.011,VALID,0.0,VALID,98.925,VALID,438.457,VALID,21.419,INVALID,360.0,VALID,0.0,
2019-10-28, 09:19:06,VALID,918.977,VALID,0.0,VALID,98.696,VALID,442.081,VALID,21.585,INVALID,360.0,VALID,0.0,
2019-10-28, 09:20:06,VALID,918.976,VALID,0.0,VALID,98.857,VALID,409.387,VALID,21.779,INVALID,360.0,VALID,0.0,
2019-10-28, 09:21:06,VALID,918.961,VALID,0.0,VALID,98.26,VALID,428.915,VALID,21.782,INVALID,360.0,VALID,0.0,
2019-10-28, 09:22:06,VALID,918.956,VALID,0.0,VALID,97.171,VALID,509.436,VALID,21.818,INVALID,360.0,VALID,0.0,
2019-10-28, 09:23:06,VALID,918.967,VALID,0.0,VALID,97.252,VALID,600.952,VALID,22.013,INVALID,360.0,VALID,0.0,
2019-10-28, 09:24:06,VALID,918.94,VALID,0.0,VALID,95.265,VALID,642.225,VALID,21.981,INVALID,360.0,VALID,0.0,
2019-10-28, 09:25:06,VALID,918.942,VALID,0.0,VALID,95.343,VALID,696.169,VALID,22.105,INVALID,360.0,VALID,0.0,
2019-10-28, 09:26:06,VALID,918.93,VALID,0.0,VALID,95.222,VALID,760.808,VALID,22.136,INVALID,360.0,VALID,0.0,
2019-10-28, 09:27:06,VALID,918.922,VALID,0.0,VALID,95.342,VALID,754.189,VALID,22.327,INVALID,360.0,VALID,0.0,
2019-10-28, 09:28:06,VALID,918.94,VALID,0.0,VALID,96.569,VALID,753.18,VALID,22.638,INVALID,360.0,VALID,0.0,
2019-10-28, 09:29:06,VALID,918.933,VALID,0.0,VALID,93.978,VALID,585.617,VALID,22.558,INVALID,360.0,VALID,0.0,
2019-10-28, 09:30:06,VALID,918.94,VALID,0.0,VALID,92.905,VALID,527.708,VALID,22.351,INVALID,360.0,VALID,0.0,
2019-10-28, 09:31:06,VALID,918.936,VALID,0.0,VALID,93.557,VALID,548.146,VALID,22.224,INVALID,360.0,VALID,0.0,
2019-10-28, 09:32:06,VALID,918.94,VALID,0.0,VALID,91.348,VALID,556.409,VALID,22.042,INVALID,360.0,VALID,0.0,
2019-10-28, 09:33:06,VALID,918.927,VALID,0.0,VALID,93.359,VALID,664.852,VALID,21.999,INVALID,360.0,VALID,0.0,
2019-10-28, 09:34:06,VALID,918.923,VALID,0.0,VALID,93.387,VALID,791.545,VALID,22.011,INVALID,360.0,VALID,0.0,
2019-10-28, 09:35:06,VALID,918.899,VALID,0.0,VALID,91.621,VALID,801.48,VALID,22.014,INVALID,360.0,VALID,0.0,
2019-10-28, 09:36:06,VALID,918.875,VALID,0.0,VALID,92.446,VALID,612.126,VALID,22.155,INVALID,360.0,VALID,0.0,
2019-10-28, 09:37:06,VALID,918.876,VALID,0.0,VALID,92.579,VALID,505.069,VALID,22.283,INVALID,360.0,VALID,0.0,
2019-10-28, 09:38:06,VALID,918.848,VALID,0.0,VALID,93.852,VALID,661.436,VALID,22.488,INVALID,360.0,VALID,0.0,
2019-10-28, 09:39:06,VALID,918.833,VALID,0.0,VALID,93.476,VALID,645.566,VALID,22.742,INVALID,360.0,VALID,0.0,
2019-10-28, 09:40:06,VALID,918.839,VALID,0.0,VALID,91.199,VALID,638.959,VALID,22.87,INVALID,360.0,VALID,0.0,
2019-10-28, 09:41:06,VALID,918.817,VALID,0.0,VALID,93.141,VALID,624.056,VALID,23.03,INVALID,360.0,VALID,0.0,
2019-10-28, 09:42:06,VALID,918.824,VALID,0.0,VALID,91.838,VALID,512.999,VALID,23.242,INVALID,360.0,VALID,0.0,
2019-10-28, 09:43:06,VALID,918.833,VALID,0.0,VALID,88.634,VALID,465.426,VALID,23.269,VALID,357.0,VALID,0.0,
2019-10-28, 09:44:06,VALID,918.841,VALID,0.0,VALID,89.307,VALID,655.754,VALID,23.224,VALID,8.0,VALID,0.0,
2019-10-28, 09:45:06,VALID,918.832,VALID,0.0,VALID,89.351,VALID,460.227,VALID,23.361,VALID,37.0,VALID,0.0,
2019-10-28, 09:46:06,VALID,918.832,VALID,0.0,VALID,87.877,VALID,327.677,VALID,23.385,VALID,289.0,VALID,0.0,
2019-10-28, 09:47:06,VALID,918.836,VALID,0.0,VALID,89.541,VALID,316.464,VALID,23.192,VALID,359.0,VALID,0.0,
2019-10-28, 09:48:06,VALID,918.842,VALID,0.0,VALID,91.05,VALID,301.822,VALID,23.211,VALID,344.0,VALID,0.0,
2019-10-28, 09:49:06,VALID,918.844,VALID,0.0,VALID,91.328,VALID,295.103,VALID,23.326,VALID,284.0,VALID,0.0,
2019-10-28, 09:50:06,VALID,918.85,VALID,0.0,VALID,88.356,VALID,295.538,VALID,23.225,VALID,224.0,VALID,0.0,
2019-10-28, 09:51:06,VALID,918.834,VALID,0.0,VALID,89.207,VALID,301.288,VALID,22.911,VALID,230.0,VALID,0.0,
2019-10-28, 09:52:06,VALID,918.816,VALID,0.0,VALID,90.416,VALID,311.459,VALID,22.689,VALID,188.0,VALID,0.0,
2019-10-28, 09:53:06,VALID,918.811,VALID,0.0,VALID,91.431,VALID,324.38,VALID,22.703,VALID,287.0,VALID,0.0,
2019-10-28, 09:54:06,VALID,918.809,VALID,0.0,VALID,89.498,VALID,341.082,VALID,22.776,VALID,276.0,VALID,0.0,
2019-10-28, 09:55:06,VALID,918.806,VALID,0.0,VALID,89.241,VALID,365.656,VALID,22.778,VALID,254.0,VALID,0.0,
2019-10-28, 09:56:06,VALID,918.807,VALID,0.0,VALID,89.025,VALID,407.779,VALID,22.717,VALID,273.0,VALID,0.0,
2019-10-28, 09:57:06,VALID,918.796,VALID,0.0,VALID,90.844,VALID,581.207,VALID,22.722,VALID,288.0,VALID,0.0,
2019-10-28, 09:58:06,VALID,918.778,VALID,0.0,VALID,91.749,VALID,842.682,VALID,22.967,VALID,338.0,VALID,0.0,
2019-10-28, 09:59:06,VALID,918.782,VALID,0.0,VALID,90.725,VALID,744.106,VALID,23.246,VALID,291.0,VALID,0.0,
2019-10-28, 10:00:06,VALID,918.791,VALID,0.0,VALID,90.421,VALID,958.373,VALID,23.443,VALID,289.0,VALID,0.0,
2019-10-28, 10:01:06,VALID,918.765,VALID,0.0,VALID,89.569,VALID,956.233,VALID,23.761,VALID,311.0,VALID,0.0,
2019-10-28, 10:02:06,VALID,918.775,VALID,0.0,VALID,87.823,VALID,956.726,VALID,24.142,VALID,237.0,VALID,0.0,
2019-10-28, 10:03:06,VALID,918.767,VALID,0.0,VALID,86.241,VALID,932.688,VALID,24.144,VALID,278.0,VALID,0.0,
2019-10-28, 10:04:06,VALID,918.763,VALID,0.0,VALID,84.648,VALID,788.326,VALID,23.911,VALID,232.0,VALID,0.0,
2019-10-28, 10:05:06,VALID,918.748,VALID,0.0,VALID,87.098,VALID,506.976,VALID,23.628,VALID,285.0,VALID,0.0,
2019-10-28, 10:06:06,VALID,918.733,VALID,0.0,VALID,89.061,VALID,643.96,VALID,23.861,VALID,349.0,VALID,0.0,
2019-10-28, 10:07:06,VALID,918.733,VALID,0.0,VALID,85.605,VALID,758.858,VALID,24.219,VALID,1.0,VALID,0.0,
2019-10-28, 10:08:06,VALID,918.72,VALID,0.0,VALID,83.232,VALID,937.088,VALID,24.446,INVALID,360.0,VALID,0.0,
2019-10-28, 10:09:06,VALID,918.707,VALID,0.0,VALID,83.22,VALID,940.137,VALID,24.523,INVALID,360.0,VALID,0.0,
2019-10-28, 10:10:06,VALID,918.698,VALID,0.0,VALID,81.861,VALID,924.263,VALID,24.652,INVALID,360.0,VALID,0.0,
2019-10-28, 10:11:06,VALID,918.698,VALID,0.0,VALID,82.536,VALID,770.41,VALID,24.998,INVALID,360.0,VALID,0.0,
2019-10-28, 10:12:06,VALID,918.7,VALID,0.0,VALID,79.912,VALID,571.18,VALID,25.112,INVALID,360.0,VALID,0.0,
2019-10-28, 10:13:06,VALID,918.692,VALID,0.0,VALID,78.363,VALID,519.572,VALID,24.879,INVALID,360.0,VALID,0.0,
2019-10-28, 10:14:06,VALID,918.68,VALID,0.0,VALID,80.865,VALID,533.316,VALID,24.469,INVALID,360.0,VALID,0.0,
2019-10-28, 10:15:06,VALID,918.681,VALID,0.0,VALID,80.398,VALID,556.942,VALID,24.171,INVALID,360.0,VALID,0.0,
2019-10-28, 10:16:06,VALID,918.688,VALID,0.0,VALID,80.833,VALID,505.227,VALID,24.131,INVALID,360.0,VALID,0.0,
2019-10-28, 10:17:06,VALID,918.677,VALID,0.0,VALID,82.896,VALID,502.102,VALID,24.174,INVALID,360.0,VALID,0.0,
2019-10-28, 10:18:06,VALID,918.651,VALID,0.0,VALID,81.177,VALID,529.332,VALID,24.222,INVALID,360.0,VALID,0.0,
2019-10-28, 10:19:06,VALID,918.656,VALID,0.0,VALID,79.949,VALID,365.992,VALID,24.179,INVALID,360.0,VALID,0.0,
2019-10-28, 10:20:06,VALID,918.655,VALID,0.0,VALID,81.195,VALID,345.751,VALID,24.023,INVALID,360.0,VALID,0.0,
2019-10-28, 10:21:06,VALID,918.656,VALID,0.0,VALID,81.271,VALID,330.766,VALID,24.048,INVALID,360.0,VALID,0.0,
2019-10-28, 10:22:06,VALID,918.656,VALID,0.0,VALID,78.81,VALID,324.045,VALID,23.919,INVALID,360.0,VALID,0.0,
2019-10-28, 10:23:06,VALID,918.658,VALID,0.0,VALID,81.36,VALID,331.398,VALID,23.641,INVALID,360.0,VALID,0.0,
2019-10-28, 10:24:06,VALID,918.67,VALID,0.0,VALID,82.852,VALID,349.014,VALID,23.633,INVALID,360.0,VALID,0.0,
2019-10-28, 10:25:06,VALID,918.671,VALID,0.0,VALID,83.535,VALID,389.062,VALID,23.707,INVALID,360.0,VALID,0.0,
2019-10-28, 10:26:06,VALID,918.678,VALID,0.0,VALID,81.95,VALID,498.781,VALID,23.82,INVALID,360.0,VALID,0.0,
2019-10-28, 10:27:06,VALID,918.682,VALID,0.0,VALID,82.549,VALID,494.521,VALID,23.974,INVALID,360.0,VALID,0.0,
2019-10-28, 10:28:06,VALID,918.67,VALID,0.0,VALID,82.924,VALID,528.686,VALID,24.097,INVALID,360.0,VALID,0.0,
2019-10-28, 10:29:06,VALID,918.676,VALID,0.0,VALID,83.032,VALID,507.22,VALID,24.262,INVALID,360.0,VALID,0.0,
2019-10-28, 10:30:06,VALID,918.658,VALID,0.0,VALID,82.434,VALID,489.375,VALID,24.175,INVALID,360.0,VALID,0.0,
2019-10-28, 10:31:06,VALID,918.651,VALID,0.0,VALID,84.363,VALID,547.461,VALID,23.928,INVALID,360.0,VALID,0.0,
2019-10-28, 10:32:06,VALID,918.643,VALID,0.0,VALID,85.145,VALID,742.901,VALID,23.871,INVALID,360.0,VALID,0.0,
2019-10-28, 10:33:06,VALID,918.625,VALID,0.0,VALID,83.623,VALID,810.49,VALID,23.931,INVALID,360.0,VALID,0.0,
2019-10-28, 10:34:06,VALID,918.618,VALID,0.0,VALID,83.785,VALID,867.293,VALID,23.949,INVALID,360.0,VALID,0.0,
2019-10-28, 10:35:06,VALID,918.591,VALID,0.0,VALID,86.378,VALID,975.21,VALID,24.155,INVALID,360.0,VALID,0.0,
2019-10-28, 10:36:06,VALID,918.589,VALID,0.0,VALID,82.39,VALID,1020.691,VALID,24.416,INVALID,360.0,VALID,0.0,